カタログに戻る

STARLINK-5494

運用中通信VLEO
NORAD 55650·PAYLOAD·🇺🇸 United States

打ち上げ Feb 17, 2023 から Vandenberg Space Force Base

Loading…

次のパス (今後24時間)

TLE

最新Source: CelesTrak SupGP

元期: Sep 15, 2026, 01:56 UTC

1 55650C 23021Y   26258.08104167 -.00052234  00000+0 -43785-2 0  2583
2 55650  70.0011  66.9186 0002567 271.6029 344.6272 14.98348936    19

AllMySatでSTARLINK-5494をリアルタイム追跡

Download on the App Store